Flag for Canada Weather past 2 weeks in Iqaluit, Nunavut Territory, Canada

Now
50 °F

Scattered clouds.


Feels Like: 48 °F
Forecast: N/A
Wind: 6 mph from South

Location: Iqaluit

Current Time: Aug 20, 2014 at 6:31:14 PM

Latest Report: Aug 20, 2014 at 5:00 PM


Visibility: 30 mi

Pressure: 30.28 "Hg

Humidity: 82%

Dew point: 45 °F

Location of IqaluitLocation

Historic Weather in Iqaluit — Graph

°F

Iqaluit temperature yesterday

Maximum temperature yesterday: 39 °F (at 4:00 AM)
Minimum temperature yesterday: 37 °F (at 12:00 AM)
Average temperature yesterday: 38 °F

Past Weeks' High & Low Weather Summary

 TemperatureHumidityPressure
High59 °F (Aug 8, 8:00 PM)100% (Aug 7, 12:00 AM)30.28 "Hg (Aug 7, 12:00 AM)
Low36 °F (Aug 18, 1:00 AM)47% (Aug 9, 2:00 PM)29.39 "Hg (Aug 12, 2:00 AM)
Average44 °F86%29.90 "Hg
* Reported Aug 5 5:00 PM — Aug 20 5:00 PM, Iqaluit, Weather by CustomWeather, © 2014

Note: Actual official high and low records may vary slightly from our data, if they occured in-between our weather recording intervals... More about our weather records

Advertising

Iqaluit weather history for previous 24 hours

 ConditionsComfort  
Time TempWeatherWind HumidityBarometerVisibility
5:00 PM
Aug 20
50 °FScattered clouds.6 mph82%30.28 "Hg30 mi
4:00 PM55 °FScattered clouds.10 mph72%30.26 "Hg30 mi
3:00 PM55 °FPartly sunny.7 mph72%30.25 "Hg20 mi
2:00 PM55 °FPartly sunny.8 mph72%30.24 "Hg20 mi
1:00 PM52 °FBroken clouds.9 mph82%30.24 "Hg20 mi
12:00 PM52 °FBroken clouds.7 mph77%30.24 "Hg15 mi
11:00 AM48 °FMostly cloudy.10 mph87%30.23 "Hg15 mi
10:00 AM46 °FMostly cloudy.8 mph87%30.23 "Hg20 mi
9:00 AM45 °FMostly cloudy.7 mph93%30.22 "Hg10 mi
8:00 AM45 °FOvercast.3 mph87%30.21 "Hg10 mi
7:00 AM45 °FOvercast.7 mph93%30.19 "Hg10 mi
6:00 AM43 °FLight rain. Overcast.6 mph93%30.17 "Hg6 mi
5:00 AM41 °FLight rain. Fog.5 mph100%30.15 "Hg6 mi
4:00 AM41 °FLight rain. Fog.2 mph93%30.14 "Hg6 mi
3:00 AM39 °FLight rain. Fog.2 mph100%30.11 "Hg6 mi
2:00 AM39 °FLight rain. Fog.No wind100%30.11 "Hg6 mi
1:00 AM39 °FLight rain. Fog.2 mph93%30.10 "Hg6 mi
12:00 AM39 °FLight rain. Fog.2 mph93%30.09 "Hg6 mi
11:00 PM
Aug 19
39 °FDrizzle. Fog.3 mph93%30.09 "Hg6 mi
10:00 PM39 °FLight rain. Fog.5 mph93%30.09 "Hg3 mi
9:52 PM39 °FLight rain. Fog.6 mph93%30.09 "Hg4 mi
9:00 PM39 °FDrizzle. Fog.5 mph93%30.07 "Hg3 mi
8:00 PM39 °FDrizzle. Fog.2 mph100%30.06 "Hg4 mi
7:00 PM39 °FDrizzle. Fog.2 mph93%30.05 "Hg4 mi
6:00 PM39 °FDrizzle. Fog.6 mph93%30.04 "Hg6 mi
Weather by CustomWeather, © 2014

See weather overviewHow to use our weather pages